Home > Weather > Prince Rupert > Past weeks

Flag for Canada Past Weather in Prince Rupert, British Columbia, Canada — Yesterday and Last 2 Weeks

Now
64 °F

Sunny.


Feels Like: 64 °F
Forecast: 51 / 69 °F
Wind: 7 mph from Northwest

Location: Prince Rupert

Current Time: Aug 23, 2016 at 2:06:07 PM

Latest Report: Aug 23, 2016 at 1:00 PM


Visibility: 9 mi

Pressure: 30.38 "Hg

Humidity: 68%

Dew Point: 54 °F

Location of Prince RupertLocation

Past Weather in Prince Rupert — Graph

°F

Prince Rupert Temperature Yesterday

Maximum temperature yesterday: 61 °F (at 2:00 PM)
Minimum temperature yesterday: 54 °F (at 11:00 PM)
Average temperature yesterday: 58 °F

High & Low Weather Summary for the Past Weeks

 TemperatureHumidityPressure
High68 °F (Aug 18, 1:00 PM)100% (Aug 8, 11:00 PM)30.39 "Hg (Aug 8, 11:00 PM)
Low50 °F (Aug 17, 5:00 AM)64% (Aug 17, 3:00 PM)29.82 "Hg (Aug 21, 7:00 AM)
Average59 °F93%30.14 "Hg
* Reported Aug 8 12:00 PM — Aug 23 12:00 PM, Prince Rupert, Weather by CustomWeather, © 2016

Note: Actual official high and low records may vary slightly from our data, if they occured in-between our weather recording intervals... More about our weather records

Advertising

Prince Rupert Weather History for the Previous 24 Hours

Scroll right to see more
 ConditionsComfort  
Time TempWeatherWind HumidityBarometerVisibility
12:00 PM
Tue, Aug 23
64 °FSunny.12 mph73%30.37 "Hg9 mi
11:00 AM63 °FSunny.9 mph77%30.35 "Hg9 mi
10:00 AM59 °FSunny.7 mph88%30.34 "Hg9 mi
9:00 AM57 °FSunny.5 mph88%30.34 "Hg9 mi
8:00 AM54 °FSunny.5 mph94%30.33 "Hg9 mi
7:00 AM52 °FPartly cloudy.5 mph94%30.32 "Hg9 mi
6:00 AM52 °FPassing clouds.5 mph94%30.30 "Hg9 mi
5:00 AM52 °FClear.6 mph94%30.29 "Hg9 mi
4:00 AM52 °FOvercast.3 mph94%30.28 "Hg9 mi
3:00 AM52 °FPassing clouds.3 mph94%30.27 "Hg9 mi
2:00 AM52 °FClear.6 mph100%30.26 "Hg9 mi
1:00 AM52 °FClear.5 mph100%30.25 "Hg9 mi
12:00 AM54 °FClear.3 mph94%30.25 "Hg9 mi
11:00 PM
Mon, Aug 22
54 °FClear.3 mph94%30.24 "Hg9 mi
10:00 PM55 °FClear.No wind94%30.24 "Hg9 mi
9:00 PM57 °FSunny.2 mph88%30.22 "Hg9 mi
8:00 PM61 °FSunny.6 mph77%30.21 "Hg9 mi
7:00 PM59 °FSunny.5 mph82%30.20 "Hg9 mi
6:00 PM59 °FScattered clouds.7 mph88%30.19 "Hg9 mi
5:00 PM61 °FOvercast.7 mph83%30.19 "Hg9 mi
4:00 PM61 °FPassing clouds.7 mph83%30.18 "Hg9 mi
3:00 PM61 °FSunny.7 mph83%30.17 "Hg9 mi
2:00 PM61 °FSunny.3 mph83%30.16 "Hg9 mi
Weather by CustomWeather, © 2016

See weather overviewHow to use our weather pages